Location: Laterina
(43.5167°N, 11.7167°E)
Time: 16:24:05
(UTC+00:00)

NOSS 3-2 (A) - Pass Details

Date: 24 September 2020
Orbit: 795 x 1413 km, 63.4° (Epoch: 02 October)

Event Time Altitude Azimuth Distance (km) Brightness Sun altitude
Rises 17:20:00 0° 324° (NW) 3,938 7.3 -3.3°
Reaches altitude 10° 17:22:37 10° 329° (NNW) 3,062 6.6 -3.8°
Maximum altitude 17:29:59 58° 48° (NE) 1,460 4.2 -5.1°
Drops below altitude 10° 17:38:17 10° 126° (SE) 3,433 5.8 -6.6°
Sets 17:41:21 0° 130° (SE) 4,443 6.4 -7.2°
Enters shadow 17:41:27 - 130° (SE) 4,474 6.4 -7.2°
